Terug naar catalogus

SL-8 R/B

ActiefLEO
NORAD 4579·ROCKET BODY·🇷🇺 Russia

Gelanceerd Oct 12, 1970 vanaf Plesetsk Cosmodrome

Loading…

Volgende Passages (komende 24 uur)

TLE

VersSource: Space-Track

Epoch: Sep 14, 2026, 13:34 UTC

1  4579U 70083B   26257.56552494  .00000361  00000-0  75177-4 0  9996
2  4579  73.9997 102.8198 0009926 355.7985   4.3098 14.63762490967882

Volg SL-8 R/B in realtime met AllMySat

Download on the App Store